Location: Carrières
(48.9495°N, 2.0407°E)
Time: 19:53:30
(UTC+00:00)

Transit 2A - Pass Details

Date: 24 April 2024
Orbit: 594 x 957 km, 66.7° (Epoch: 18 May)

Event Time Altitude Azimuth Distance (km) Brightness Sun altitude
Rises 05:52:35 0° 220° (SW) 2,854 8.5 10.2°
Reaches altitude 10° 05:54:46 10° 222° (SW) 1,979 7.7 10.6°
Maximum altitude 05:59:12 73° 307° (NW) 684 5.9 11.3°
Drops below altitude 10° 06:04:03 10° 33° (NNE) 2,162 9.0 12.1°
Sets 06:06:31 0° 35° (NE) 3,143 9.8 12.5°
